Location: ?????????
(38.4921°N, 22.9787°E)
Time: 03:27:17
(UTC+00:00)

IRS-1D - Pass Details

Date: 08 December 2025
Orbit: 737 x 810 km, 98.8° (Epoch: 15 January)

Event Time Altitude Azimuth Distance (km) Brightness Sun altitude
Rises 03:58:12 0° 6° (N) 3,198 6.6 -18.0°
Reaches altitude 10° 04:00:33 10° 1° (N) 2,278 5.8 -17.6°
Maximum altitude 04:05:19 46° 289° (WNW) 1,018 3.7 -16.7°
Drops below altitude 10° 04:10:08 10° 217° (SW) 2,306 5.8 -15.8°
Sets 04:12:32 0° 211° (SSW) 3,241 6.6 -15.3°
